Location: Newark
(48.6461°N, 4.3644°W)
Time: 04:31:25
(UTC+00:00)

Transit 4A - Pass Details

Date: 02 February 2020
Orbit: 872 x 973 km, 66.8° (Epoch: 17 February)

Event Time Altitude Azimuth Distance (km) Brightness Sun altitude
Rises 12:43:25 0° 325° (NW) 3,474 10.5 24.4°
Reaches altitude 10° 12:45:59 10° 331° (NNW) 2,531 9.8 24.4°
Maximum altitude 12:51:40 51° 47° (NE) 1,091 8.3 24.3°
Drops below altitude 10° 12:57:21 10° 123° (ESE) 2,537 10.6 24.2°
Sets 12:59:56 0° 129° (SE) 3,484 11.3 24.2°
